Vorticity
9 7 7 5 5 5 4 3 4 6 6 6 11 7 5 7 5 5 8 5 1 16 3 5 4 10 6 0 -1 6 3 -20 -0 2 5 4 4 5 3 8 7 9 8 9 11
11 9 8 7 6 5 3 3 4 6 7 7 4 5 8 7 7 6 7 6 7 12 8 5 -6 -1 11 4 -0 3 -1 14 7 3 4 3 4 7 5 4 7 8 8 10 8
12 10 10 8 7 7 4 4 6 7 7 8 7 8 9 8 5 10 9 7 9 4 9 3 4 9 1 3 7 11 30 -10 -1 6 -0 14 2 2 5 5 8 9 7 9 6
10 12 10 10 9 8 7 6 6 7 8 8 9 9 8 7 9 11 10 10 9 5 7 4 -0 15 9 1 18 8 -6 11 1 6 -6 2 11 3 3 4 3 9 8 7 6
6 6 8 8 8 9 8 8 7 7 9 8 8 8 9 8 9 7 10 8 9 10 4 7 -5 -18 14 18 2 11 -5 -0 -2 11 -8 8 8 8 2 6 2 7 11 6 5
7 6 6 5 5 6 7 7 8 6 7 8 8 8 7 6 8 8 8 10 7 10 7 4 3 9 18 5 5 9 25 -5 30 12 4 5 12 12 1 6 4 3 10 9 6
4 4 5 6 6 6 6 5 5 5 4 5 6 7 7 8 7 9 7 6 8 10 11 9 11 15 -17 -10 -9 -16 11 7 11 9 0 1 0 7 14 9 15 3 8 11 5
13 12 9 7 6 6 5 5 6 5 6 5 4 5 6 6 6 5 11 9 6 8 9 10 7 -6 17 9 6 17 3 4 10 -0 8 4 2 6 5 11 15 33 3 9 8
9 9 10 11 12 12 12 12 11 9 7 5 5 4 5 5 6 5 7 8 10 7 8 9 13 10 0 1 21 -4 8 8 3 -5 6 6 11 7 1 2 16 5 4 8 9
7 7 6 6 7 7 8 8 7 8 9 10 11 6 6 3 7 6 5 6 7 9 8 7 10 13 3 -2 -9 -5 -8 -2 1 12 10 5 6 4 -0 -3 2 15 3 6 8
6 6 9 10 9 9 10 13 15 21 17 13 9 8 10 8 6 7 7 5 5 6 6 10 6 10 17 3 -12 -1 13 -12 8 13 -4 -7 19 6 -6 5 9 8 19 3 3
9 9 8 13 13 10 14 12 8 5 4 8 12 17 17 13 10 9 3 6 5 6 7 7 7 12 13 17 11 -3 2 -2 21 -4 -7 3 25 32 8 10 16 4 7 17 2
8 10 10 6 10 8 -7 4 8 10 13 6 18 14 14 17 19 10 10 7 5 4 5 6 4 10 14 9 10 -16 8 -9 1 -6 13 30 -25 -3 12 12 4 8 5 16 13
10 10 5 11 -5 -1 3 5 4 4 7 11 7 -4 17 14 16 18 12 6 7 5 5 3 5 6 8 12 -0 6 6 32 -10 27 6 12 16 6 25 -9 11 10 6 4 5
8 8 8 -6 1 -0 4 3 2 5 10 6 9 6 15 -0 18 35 17 10 7 7 5 7 8 4 6 4 7 13 0 -2 -0 0 -9 2 7 6 1 -4 28 12 2 5 6
8 13 12 -4 1 0 2 5 4 10 12 7 6 10 6 7 17 39 34 16 9 7 7 3 5 6 6 2 16 7 -11 14 6 -11 1 1 -0 8 -8 9 9 26 13 3 4
9 8 14 5 1 2 3 4 6 17 10 1 4 6 8 14 29 21 23 38 11 12 9 8 4 8 -2 8 0 13 7 1 3 1 22 8 5 -0 -2 9 13 -3 20 10 15
15 10 9 8 8 6 4 9 6 6 4 8 4 8 10 32 25 11 29 26 37 43 7 17 6 8 13 -3 6 3 8 7 6 -4 19 7 8 2 12 2 13 0 -2 -1 15
9 11 12 12 14 12 10 11 4 6 6 6 5 8 3 29 11 4 30 16 11 27 32 23 7 33 37 -6 18 3 8 11 -4 4 1 9 -1 16 -14 4 -40 5 1 22 18
12 10 11 14 11 11 10 9 12 4 4 4 3 3 1 22 17 6 5 1 20 19 2 22 44 2 16 34 2 9 9 16 3 9 -4 5 15 5 12 13 11 14 18 34 1
10 8 5 6 7 8 6 -0 9 12 8 3 5 9 1 23 20 8 23 19 27 9 -4 8 13 14 4 6 20 11 10 -2 17 1 1 14 -14 3 6 -10 10 15 18 -6 1
-2 2 9 9 6 6 4 11 11 9 10 4 6 5 11 18 17 15 30 38 -26 22 16 -3 2 19 17 18 15 6 21 -5 4 7 17 -3 10 10 14 8 20 12 11 9 21
1 1 7 6 4 20 -12 18 12 12 10 7 6 8 10 20 17 20 14 14 3 14 62 22 -6 6 11 19 15 16 6 23 1 -2 19 4 3 -18 35 11 48 0 -4 -8 11
3 7 8 2 3 5 7 13 9 10 5 6 7 9 14 16 8 32 18 21 30 -30 14 36 28 -5 11 17 19 16 17 8 15 3 6 17 4 5 4 35 -1 6 20 35 12
7 1 6 6 3 4 9 13 17 7 9 8 9 8 8 19 12 9 42 7 3 20 51 -1 33 14 -1 5 -20 27 16 11 2 21 1 9 24 -23 13 -2 36 -8 -19 9 -2
3 1 4 4 7 5 5 11 24 8 6 7 8 11 11 13 1 20 1 51 20 21 -4 15 29 8 45 -1 -7 4 4 20 39 16 12 5 7 -7 27 20 -15 68 28 37 5
9 7 5 7 6 13 7 5 23 9 5 9 8 10 9 8 11 -0 5 21 35 16 20 3 18 1 54 -13 -21 2 0 3 20 51 5 20 -28 -4 2 22 12 -11 -12 10 25
Height
5864 5866 5868 5870 5871 5873 5875 5877 5879 5881 5882 5883 5885 5886 5886 5888 5890 5891 5893 5893 5894 5896 5898 5901 5902 5903 5904 5904 5903 5902 5897 5899 5903 5904 5906 5908 5909 5909 5909 5908 5907 5906 5904 5904 5905
5863 5865 5867 5869 5870 5872 5874 5875 5877 5879 5880 5881 5883 5885 5885 5886 5888 5891 5893 5893 5893 5896 5898 5900 5903 5904 5905 5904 5906 5906 5897 5882 5901 5904 5908 5910 5911 5912 5912 5911 5910 5909 5908 5907 5908
5862 5864 5866 5868 5869 5871 5872 5874 5875 5876 5877 5879 5881 5882 5884 5885 5886 5890 5891 5892 5892 5895 5898 5900 5901 5902 5906 5903 5904 5907 5892 5907 5911 5910 5911 5912 5913 5912 5913 5913 5913 5912 5911 5910 5911
5862 5863 5865 5866 5868 5869 5870 5872 5874 5875 5876 5876 5878 5880 5882 5883 5887 5886 5889 5891 5892 5895 5897 5900 5902 5903 5905 5906 5903 5906 5908 5907 5907 5910 5913 5914 5914 5916 5915 5915 5915 5914 5913 5913 5914
5862 5863 5864 5865 5867 5868 5869 5871 5872 5873 5874 5875 5877 5878 5880 5882 5884 5885 5887 5889 5891 5893 5896 5898 5900 5901 5901 5905 5905 5907 5908 5908 5907 5911 5915 5914 5914 5915 5916 5917 5916 5916 5916 5915 5915
5861 5862 5863 5865 5866 5867 5868 5869 5871 5872 5872 5873 5875 5877 5879 5880 5883 5884 5886 5887 5889 5893 5895 5897 5898 5900 5902 5904 5904 5906 5907 5910 5909 5913 5913 5914 5914 5915 5915 5916 5917 5917 5917 5917 5917
5860 5861 5862 5863 5864 5865 5866 5867 5868 5870 5871 5872 5873 5874 5877 5879 5879 5882 5883 5885 5887 5890 5893 5895 5896 5899 5899 5900 5904 5903 5908 5908 5911 5913 5913 5914 5914 5914 5914 5915 5917 5918 5918 5919 5918
5857 5858 5859 5860 5861 5862 5863 5864 5866 5867 5868 5869 5870 5872 5873 5876 5877 5879 5881 5882 5884 5886 5889 5891 5894 5898 5901 5903 5904 5903 5909 5911 5909 5909 5914 5914 5914 5913 5914 5914 5916 5916 5919 5919 5920
5854 5856 5857 5857 5858 5859 5860 5862 5863 5864 5864 5865 5867 5868 5870 5871 5874 5876 5878 5880 5881 5883 5885 5888 5893 5896 5898 5902 5903 5904 5907 5909 5908 5909 5910 5913 5914 5915 5915 5914 5915 5917 5919 5919 5920
5852 5854 5854 5855 5856 5857 5857 5858 5858 5858 5859 5860 5862 5865 5865 5869 5871 5872 5873 5876 5878 5879 5881 5885 5888 5892 5896 5898 5901 5906 5909 5908 5909 5907 5908 5910 5914 5914 5913 5915 5915 5916 5918 5919 5919
5850 5850 5851 5852 5852 5852 5853 5854 5856 5856 5856 5858 5860 5859 5860 5862 5865 5866 5869 5871 5873 5875 5879 5882 5883 5886 5892 5896 5901 5904 5904 5905 5906 5906 5906 5909 5905 5912 5914 5912 5914 5914 5916 5918 5919
5847 5848 5848 5849 5849 5849 5851 5851 5851 5853 5853 5853 5854 5854 5854 5857 5859 5860 5862 5866 5867 5871 5874 5875 5877 5886 5889 5892 5896 5900 5902 5903 5905 5904 5908 5909 5907 5905 5907 5910 5910 5911 5913 5915 5917
5845 5845 5845 5846 5846 5847 5848 5848 5847 5847 5849 5850 5849 5848 5848 5849 5851 5853 5855 5858 5860 5863 5866 5869 5876 5880 5882 5884 5888 5895 5898 5902 5905 5901 5907 5907 5908 5905 5904 5907 5909 5909 5910 5912 5914
5843 5843 5842 5843 5845 5843 5844 5843 5843 5842 5842 5841 5841 5842 5841 5842 5841 5843 5844 5849 5852 5855 5859 5862 5869 5871 5874 5878 5883 5889 5899 5901 5899 5899 5905 5905 5907 5908 5905 5903 5905 5907 5908 5908 5912
5840 5840 5840 5839 5840 5840 5840 5839 5838 5837 5837 5837 5834 5835 5834 5835 5834 5831 5835 5837 5843 5846 5849 5856 5860 5865 5867 5873 5878 5884 5893 5897 5898 5897 5900 5901 5904 5903 5901 5902 5902 5904 5908 5907 5908
5837 5837 5837 5836 5836 5836 5836 5835 5834 5833 5830 5829 5827 5825 5825 5823 5823 5820 5822 5826 5831 5834 5836 5844 5849 5856 5862 5867 5872 5878 5884 5886 5891 5890 5892 5899 5903 5900 5899 5898 5896 5897 5903 5905 5905
5833 5832 5832 5832 5832 5831 5831 5830 5830 5828 5826 5825 5821 5819 5817 5815 5814 5811 5810 5814 5819 5823 5827 5833 5839 5846 5851 5858 5866 5870 5877 5880 5882 5884 5887 5896 5900 5899 5896 5893 5896 5895 5897 5901 5902
5828 5828 5828 5827 5826 5826 5825 5825 5824 5822 5820 5818 5815 5812 5809 5807 5807 5802 5804 5805 5807 5811 5815 5822 5828 5837 5843 5846 5858 5864 5869 5873 5878 5882 5888 5891 5893 5900 5890 5891 5892 5894 5891 5899 5899
5824 5823 5822 5822 5821 5820 5820 5818 5817 5815 5814 5812 5810 5806 5805 5805 5799 5797 5799 5801 5802 5807 5809 5811 5811 5826 5832 5840 5849 5854 5860 5868 5873 5880 5884 5886 5890 5896 5891 5889 5891 5892 5889 5892 5893
5821 5819 5818 5817 5816 5815 5814 5812 5810 5810 5807 5805 5802 5800 5797 5796 5794 5792 5793 5792 5788 5790 5796 5799 5801 5812 5825 5833 5837 5844 5854 5859 5862 5867 5870 5876 5881 5884 5883 5885 5889 5887 5885 5891 5892
5818 5817 5815 5814 5812 5810 5808 5805 5802 5801 5800 5798 5796 5793 5789 5786 5784 5784 5786 5777 5782 5785 5783 5784 5790 5802 5812 5820 5827 5835 5838 5845 5857 5861 5865 5870 5874 5874 5873 5883 5882 5882 5882 5883 5888
5815 5814 5812 5810 5808 5805 5803 5801 5799 5794 5792 5792 5789 5785 5781 5778 5775 5774 5775 5769 5772 5773 5777 5782 5779 5787 5798 5809 5821 5827 5831 5837 5842 5852 5859 5864 5871 5870 5869 5873 5877 5877 5879 5880 5882
5810 5809 5807 5805 5803 5800 5794 5793 5792 5788 5785 5783 5781 5778 5774 5770 5766 5765 5766 5765 5764 5762 5761 5770 5777 5780 5787 5797 5805 5815 5823 5830 5837 5846 5852 5858 5863 5849 5864 5866 5865 5867 5869 5878 5883
5805 5804 5802 5800 5798 5795 5790 5786 5782 5779 5780 5776 5773 5770 5766 5762 5758 5756 5757 5760 5757 5755 5758 5762 5770 5777 5782 5794 5807 5812 5815 5821 5829 5835 5841 5846 5856 5854 5855 5859 5851 5858 5865 5874 5875
5799 5798 5795 5793 5789 5788 5784 5780 5777 5773 5770 5768 5766 5762 5758 5755 5751 5748 5747 5748 5748 5747 5750 5755 5757 5764 5771 5776 5784 5787 5806 5810 5813 5821 5831 5843 5850 5856 5849 5844 5844 5851 5857 5863 5869
5793 5791 5790 5787 5784 5780 5776 5774 5771 5767 5765 5762 5759 5755 5751 5748 5745 5742 5739 5737 5737 5739 5742 5744 5747 5749 5753 5766 5771 5778 5786 5800 5806 5811 5819 5829 5838 5842 5832 5836 5842 5834 5851 5857 5863
5786 5784 5783 5781 5777 5774 5769 5765 5763 5760 5758 5755 5752 5748 5744 5741 5739 5736 5733 5730 5729 5729 5733 5735 5739 5746 5750 5763 5768 5770 5778 5788 5800 5804 5810 5817 5830 5814 5814 5822 5833 5831 5842 5849 5853